Miscellaneous Local Product
Issued by NWS Hastings, NE

Home | Current Version | Previous Version | Graphics & Text | Print | Product List | Glossary On
Versions: 1 2 3 4 5 6 7 8 9 10 11 12 13 14 15 16 17 18 19 20 21 22 23 24 25 26 27 28 29 30 31 32 33 34 35 36 37 38 39 40 41 42 43 44 45 46 47 48 49 50
000
AXUS43 KGID 271302
MISGRI

GID CWA HOURLY WEATHER ROUNDUP
NATIONAL WEATHER SERVICE HASTINGS NE
800 AM CDT THU AUG 27 2015

NOTE: "FAIR" INDICATES FEW OR NO CLOUDS BELOW 12,000 FEET WITH NO
SIGNIFICANT WEATHER AND/OR OBSTRUCTIONS TO VISIBILITY.

...SOUTH CENTRAL NEBRASKA...

CITY           SKY/WX    TMP DP  RH WIND       PRES   REMARKS
GRAND ISLAND   CLOUDY    68  66  93 E10       29.99R
HASTINGS       CLOUDY    70  68  93 S9        29.96R FOG
KEARNEY        CLOUDY    66  64  94 SE6       29.95R
ORD            CLOUDY    67  65  93 E9        29.97R
YORK           PTSUNNY   66  64  94 S13       29.99F
AURORA         CLOUDY    67  67 100 E9        29.99S
LEXINGTON      MOSUNNY   64  62  93 E5        29.93S
HOLDREGE       CLOUDY    67  65  91 S8        29.94S
HEBRON         PTSUNNY   70  65  86 S9        29.96F

...NEBRASKA PANHANDLE...

CITY           SKY/WX    TMP DP  RH WIND       PRES   REMARKS
CHADRON        CLOUDY    64  59  83 NW7       30.02R
ALLIANCE       CLOUDY    67  65  93 N8        29.99R
SCOTTSBLUFF    CLOUDY    65  62  90 NW8       30.03S
SIDNEY         MOCLDY    65  61  87 NW16      30.01S

...WESTERN AND NORTH CENTRAL NEBRASKA...

CITY           SKY/WX    TMP DP  RH WIND       PRES   REMARKS
VALENTINE      CLOUDY    67  65  93 E8        29.94S
AINSWORTH      CLOUDY    66  65  95 SE12G20   29.95S
ONEILL         CLOUDY    68  67  94 E8        29.98S
BROKEN BOW     CLOUDY    69  67  93 E7        29.96F FOG
IMPERIAL       CLOUDY    64  54  69 N5        29.95R
NORTH PLATTE   PTCLDY    63  59  87 NE8       29.95R
MCCOOK         PTCLDY    69  56  62 S3        29.93R

...EASTERN NEBRASKA...

CITY           SKY/WX    TMP DP  RH WIND       PRES   REMARKS
NORFOLK        CLOUDY    66  64  93 E8        29.96F
SO SIOUX CITY  TSTM      63  59  87 CALM      30.04R
TEKAMAH        CLOUDY    64  60  87 SE14      30.02F THUNDER
COLUMBUS       CLOUDY    66  57  72 SE5       30.00S
ALBION         CLOUDY    67  63  85 SE7       30.01R
OMAHA EPPLEY   TSTM      66  58  75 SE13      30.04S
OFFUTT AFB     TSTM      65  59  81 SE5       30.06R
MILLARD        TSTM      67  61  81 SE5       30.06R
LINCOLN        PTSUNNY   67  63  87 SE7       30.02S
NEBRASKA CITY  CLOUDY    64  56  74 SE10      30.04R
BEATRICE       MOSUNNY   67  60  80 SE6       30.00S
FALLS CITY     MOSUNNY   65  60  84 SE8       30.03S

...NORTHERN KANSAS...

CITY           SKY/WX    TMP DP  RH WIND       PRES   REMARKS
GOODLAND       CLOUDY    71  52  50 S12       29.98F
HILL CITY      MOSUNNY   71  60  68 SW6       29.95S
NORTON         SUNNY     64  57  77 S5        29.93F
PHILLIPSBURG   SUNNY     70  70 100 E3        29.95S
SMITH CENTER   SUNNY     68  66  94 SE8       29.96S
HAYS           MOSUNNY   70  55  60 SE6       29.97R
RUSSELL        PTSUNNY   70  64  81 S10       29.96S
CONCORDIA      PTSUNNY   70  68  93 S10       29.97F
SALINA         PTSUNNY   73  68  84 SE7       29.98S
TOPEKA         SUNNY     68  63  84 SE8       30.06R



USA.gov is the U.S. government's official web portal to all federal, state and local government web resources and services.